St. Augustine, FL

9:29 AM EDT on May 30, 2017 (GMT -0400)
Saint Augustine

Weather History for KSGJ - January, 2008

Change the Weather History Date:

Monday, January 7, 2008

  Actual Average Record
Temperature  
Mean Temperature 63 °F -  
Max Temperature 73 °F 62 °F 81 °F (1982)
Min Temperature 53 °F 44 °F 26 °F (2014)
Degree Days  
Heating Degree Days 2    
Growing Degree Days 13 (Base 50)    
Moisture  
Dew Point 57 °F    
Average Humidity 93    
Maximum Humidity 100    
Minimum Humidity 65    
Precipitation  
Precipitation 0.00 in - - ()
Sea Level Pressure  
Sea Level Pressure 30.32 in    
Wind  
Wind Speed 3 mph (North)    
Max Wind Speed 8 mph    
Max Gust Speed -    
Visibility 7 miles    
Events      
Averages and records for this station are not official NWS values.
T = Trace of Precipitation, MM = Missing Value Source: NWS Daily Summary

Daily Weather History Graph

Daily Weather History Graph

Search for Another Location

Airport or City:

Trip Planner

Search our weather history database for the weather conditions in past years. The results will help you decide how hot, cold, wet, or windy it might be!

Date:

Astronomy

Jan. 07, 2008 Rise Set
Actual Time 7:22 AM EST 5:41 PM EST
Civil Twilight 6:56 AM EST 6:07 PM EST
Nautical Twilight 6:26 AM EST 6:36 PM EST
Astronomical Twilight 5:57 AM EST 7:05 PM EST
Moon 6:53 AM EST (1/7) 4:55 PM EST (1/7)
Length of Visible Light 11h 11m
Length of Day
10h 18m
Waning Crescent, 1% of the Moon is Illuminated
Jan 7
Waning Crescent
Jan 8
New
Jan 15
First Quarter
Jan 22
Full
Jan 30
Last Quarter

Hourly Weather History & Observations

Time (EST) Temp. Dew Point Humidity Pressure Visibility Wind Dir Wind Speed Gust Speed Precip Events Conditions
12:15 AM 57.2 °F 57.2 °F 100% 30.32 in 0.2 mi NNW 4.6 mph - N/A   Overcast
12:35 AM 57.2 °F 57.2 °F 100% 30.32 in 0.2 mi NNW 3.5 mph - N/A   Overcast
12:55 AM 57.2 °F 57.2 °F 100% 30.31 in 0.2 mi NNW 3.5 mph - N/A   Overcast
1:15 AM 57.2 °F 57.2 °F 100% 30.31 in 0.5 mi NNW 3.5 mph - N/A   Overcast
1:35 AM 57.2 °F 57.2 °F 100% 30.31 in 0.5 mi NNW 3.5 mph - N/A   Overcast
1:55 AM 59.0 °F 57.2 °F 94% 30.31 in 8.0 mi North 3.5 mph - N/A   Overcast
2:15 AM 57.2 °F 55.4 °F 94% 30.30 in 10.0 mi NNW 3.5 mph - N/A   Overcast
2:35 AM 55.4 °F 53.6 °F 94% 30.30 in 6.0 mi Calm Calm - N/A   Scattered Clouds
2:55 AM 55.4 °F 55.4 °F 100% 30.30 in 1.5 mi Calm Calm - N/A   Clear
3:15 AM 55.4 °F 53.6 °F 94% 30.30 in 0.8 mi Calm Calm - N/A   Mostly Cloudy
3:35 AM 53.6 °F 53.6 °F 100% 30.31 in 1.0 mi Calm Calm - N/A   Mostly Cloudy
3:55 AM 53.6 °F 53.6 °F 100% 30.30 in 0.8 mi Calm Calm - N/A   Mostly Cloudy
4:15 AM 53.6 °F 53.6 °F 100% 30.30 in 7.0 mi NNW 3.5 mph - N/A   Partly Cloudy
4:35 AM 53.6 °F 53.6 °F 100% 30.30 in 9.0 mi Calm Calm - N/A   Clear
4:55 AM 53.6 °F 51.8 °F 94% 30.30 in 8.0 mi Calm Calm - N/A   Mostly Cloudy
5:15 AM 53.6 °F 51.8 °F 94% 30.31 in 3.0 mi Calm Calm - N/A   Overcast
5:35 AM 53.6 °F 51.8 °F 94% 30.31 in 0.5 mi NNW 3.5 mph - N/A   Overcast
5:55 AM 53.6 °F 51.8 °F 94% 30.31 in 3.0 mi Calm Calm - N/A   Clear
6:15 AM 53.6 °F 51.8 °F 94% 30.32 in 2.5 mi NNW 3.5 mph - N/A   Clear
6:35 AM 53.6 °F 51.8 °F 94% 30.32 in 2.0 mi Calm Calm - N/A   Clear
7:57 AM 57.2 °F 55.4 °F 94% 30.34 in 10.0 mi North 3.5 mph - N/A   Mostly Cloudy
8:50 AM 60.8 °F 60.8 °F 100% 30.36 in 10.0 mi Calm Calm - N/A   Scattered Clouds
9:50 AM 64.4 °F 62.6 °F 94% 30.38 in 10.0 mi NNE 5.8 mph - N/A   Partly Cloudy
10:50 AM 68.0 °F 62.6 °F 83% 30.38 in 10.0 mi NNE 8.1 mph - N/A   Scattered Clouds
11:50 AM 68.0 °F 62.6 °F 83% 30.38 in 10.0 mi East 6.9 mph - N/A   Scattered Clouds
1:50 PM 73.4 °F 60.8 °F 65% 30.31 in 10.0 mi East 6.9 mph - N/A   Scattered Clouds
2:50 PM 71.6 °F 60.8 °F 69% 30.30 in 10.0 mi NE 6.9 mph - N/A   Scattered Clouds
4:50 PM 66.2 °F 60.8 °F 83% 30.31 in 10.0 mi NE 5.8 mph - N/A   Scattered Clouds
5:50 PM 64.4 °F 60.8 °F 88% 30.31 in 10.0 mi ENE 5.8 mph - N/A   Scattered Clouds
7:51 PM 62.6 °F 60.8 °F 94% 30.32 in 10.0 mi NE 3.5 mph - N/A   Clear
8:55 PM 60.8 °F 59.0 °F 94% 30.32 in 10.0 mi Calm Calm - N/A   Clear
9:15 PM 60.8 °F 59.0 °F 94% 30.33 in 10.0 mi Calm Calm - N/A   Clear
9:35 PM 60.8 °F 59.0 °F 94% 30.33 in 10.0 mi NNE 3.5 mph - N/A   Clear
9:55 PM 60.8 °F 57.2 °F 88% 30.32 in 10.0 mi Calm Calm - N/A   Clear
10:15 PM 60.8 °F 59.0 °F 94% 30.32 in 10.0 mi Calm Calm - N/A   Clear
10:35 PM 59.0 °F 57.2 °F 94% 30.32 in 10.0 mi Calm Calm - N/A   Clear
10:55 PM 59.0 °F 55.4 °F 88% 30.31 in 10.0 mi Calm Calm - N/A   Scattered Clouds
11:15 PM 59.0 °F 55.4 °F 88% 30.31 in 10.0 mi Calm Calm - N/A   Scattered Clouds
11:35 PM 57.2 °F 55.4 °F 94% 30.30 in 10.0 mi Calm Calm - N/A   Scattered Clouds
11:55 PM 59.0 °F 55.4 °F 88% 30.30 in 10.0 mi Calm Calm - N/A   Scattered Clouds